FW1856 Weather Reports


time (UTC)temp
C
wind
direction
speed
KPH
gust
KPH
rain 1hr
cm
rain 24hr
cm
rain mn
cm
humidity
%
barometer
mb
20260504190122 23 314 6.4 17.7 0.00 0.00 0.00 42 1010.2
20260504185122 23 325 6.4 20.9 0.00 0.00 0.00 42 1010.2
20260504184123 23 311 9.7 25.7 0.00 0.00 0.00 43 1010.2
20260504183124 23 316 8.0 20.9 0.00 0.00 0.00 44 1010.3
20260504182122 23 321 6.4 17.7 0.00 0.00 0.00 44 1010.2
20260504181143 23 313 6.4 17.7 0.00 0.00 0.00 48 1010.3
20260504180122 23 323 6.4 20.9 0.00 0.00 0.00 46 1010.3
20260504175122 22 313 4.8 17.7 0.00 0.00 0.00 48 1010.3
20260504174122 22 312 6.4 20.9 0.00 0.00 0.00 48 1010.3
20260504173143 23 320 4.8 12.9 0.00 0.00 0.00 47 1010.2
20260504172122 23 358 6.4 20.9 0.00 0.00 0.00 47 1010.3
20260504171143 22 341 3.2 12.9 0.00 0.00 0.00 47 1010.3
20260504170123 22 329 1.6 8.0 0.00 0.00 0.00 51 1010.2
20260504160122 20 103 3.2 9.7 0.00 0.00 0.00 49 1010.3
20260504151124 18 83 1.6 4.8 0.00 0.00 0.00 55 1010.5
20260504150122 18 104 3.2 8.0 0.00 0.00 0.00 56 1010.4
20260504141122 15 141 0.0 0.0 0.00 0.00 0.00 70 1010.1
20260504140123 14 141 0.0 0.0 0.00 0.00 0.00 74 1010.1
20260504130122 12 287 1.6 4.8 0.00 0.00 0.00 76 1009.7
20260504120122 13 104 0.0 0.0 0.00 0.00 0.00 75 1009.8
20260504110144 13 102 0.0 0.0 0.00 0.00 0.00 72 1009.7
20260504100122 14 102 0.0 0.0 0.00 0.00 0.00 72 1009.6
20260504090122 15 102 0.0 3.2 0.00 0.00 0.00 71 1009.4
20260504081122 16 4 0.0 0.0 0.00 0.00 0.00 66 1009.3
20260504080122 16 8 0.0 0.0 0.00 0.00 0.00 64 1009.2
20260504070124 17 8 0.0 0.0 0.00 0.00 0.00 58 1009.1
20260504060122 17 8 0.0 0.0 0.00 0.00 0.00 58 1008.9
20260504050123 18 4 0.0 0.0 0.00 0.00 0.00 59 1008.9
20260504045122 18 4 0.0 0.0 0.00 0.00 0.00 58 1008.9
20260504044122 18 4 0.0 0.0 0.00 0.00 0.00 56 1008.9
20260504043143 18 4 0.0 0.0 0.00 0.00 0.00 56 1009.1
20260504042122 18 8 0.0 0.0 0.00 0.00 0.00 55 1009.1
20260504041144 19 5 0.0 4.8 0.00 0.00 0.00 53 1009.1
20260504040122 20 5 0.0 4.8 0.00 0.00 0.00 50 1009.1
20260504035144 19 333 0.0 4.8 0.00 0.00 0.00 53 1009.1
20260504034143 20 323 3.2 8.0 0.00 0.00 0.00 52 1009.0
20260504033122 20 345 1.6 8.0 0.00 0.00 0.00 51 1008.9
20260504032122 21 359 0.0 0.0 0.00 0.00 0.00 50 1009.0
20260504031122 21 349 3.2 9.7 0.00 0.00 0.00 48 1008.9
20260504030122 21 344 3.2 8.0 0.00 0.00 0.00 47 1009.0
20260504025143 22 307 1.6 4.8 0.00 0.00 0.00 45 1009.1
20260504024122 22 317 3.2 9.7 0.00 0.00 0.00 45 1009.1
20260504023122 22 348 4.8 12.9 0.00 0.00 0.00 43 1009.2
20260504022122 23 328 3.2 12.9 0.00 0.00 0.00 40 1009.1
20260504021122 23 320 3.2 9.7 0.00 0.00 0.00 41 1009.3
20260504020122 23 312 3.2 12.9 0.00 0.00 0.00 40 1009.4
20260504015123 23 331 3.2 16.1 0.00 0.00 0.00 41 1009.4
20260504014122 25 329 6.4 22.5 0.00 0.00 0.00 38 1009.6
20260504013143 25 306 4.8 20.9 0.00 0.00 0.00 32 1009.7
20260504012122 25 307 8.0 33.8 0.00 0.00 0.00 34 1009.9
20260504011123 25 314 6.4 20.9 0.00 0.00 0.00 36 1009.9
20260504010122 25 321 4.8 17.7 0.00 0.00 0.00 38 1010.0
20260504005122 25 317 6.4 30.6 0.00 0.00 0.00 35 1010.2
20260504004122 25 314 8.0 29.0 0.00 0.00 0.00 35 1010.3
20260504003123 25 342 3.2 12.9 0.00 0.00 0.00 39 1010.4
20260504002123 25 347 4.8 16.1 0.00 0.00 0.00 39 1010.5
20260504001143 25 327 4.8 17.7 0.00 0.00 0.00 42 1010.6
20260504000122 24 339 4.8 17.7 0.00 0.00 0.00 44 1010.7
20260503235122 24 327 6.4 20.9 0.00 0.00 0.00 44 1010.8
20260503234122 23 320 8.0 22.5 0.00 0.00 0.00 44 1011.0
20260503233143 24 315 8.0 25.7 0.00 0.00 0.00 41 1011.0
20260503232122 25 332 8.0 25.7 0.00 0.00 0.00 38 1011.2
20260503231144 25 319 9.7 29.0 0.00 0.00 0.00 37 1011.4
20260503230122 26 344 6.4 22.5 0.00 0.00 0.00 40 1011.5
20260503225122 25 326 4.8 20.9 0.00 0.00 0.00 39 1011.8
20260503224122 25 317 8.0 25.7 0.00 0.00 0.00 38 1011.8
20260503223143 25 321 8.0 29.0 0.00 0.00 0.00 40 1012.0
20260503222122 25 333 4.8 20.9 0.00 0.00 0.00 45 1012.0
20260503221123 23 353 6.4 20.9 0.00 0.00 0.00 47 1012.2
20260503220122 23 355 8.0 22.5 0.00 0.00 0.00 48 1012.4
20260503215122 23 344 6.4 20.9 0.00 0.00 0.00 49 1012.4
20260503214122 25 353 6.4 20.9 0.00 0.00 0.00 47 1012.5
20260503213123 24 349 4.8 20.9 0.00 0.00 0.00 49 1012.6
20260503212122 23 351 8.0 25.7 0.00 0.00 0.00 47 1012.8
20260503211123 23 349 9.7 25.7 0.00 0.00 0.00 50 1012.9
20260503210122 22 347 9.7 33.8 0.00 0.00 0.00 51 1012.9
20260503205143 23 358 11.3 30.6 0.00 0.00 0.00 50 1013.1
20260503204122 23 356 9.7 25.7 0.00 0.00 0.00 51 1013.3
20260503203123 23 336 8.0 22.5 0.00 0.00 0.00 48 1013.3
20260503202122 22 327 6.4 22.5 0.00 0.00 0.00 50 1013.4
20260503201122 22 340 6.4 25.7 0.00 0.00 0.00 54 1013.6
20260503200122 22 352 6.4 22.5 0.00 0.00 0.00 57 1013.9
20260503195123 21 326 8.0 22.5 0.00 0.00 0.00 56 1014.0
20260503194122 21 309 11.3 30.6 0.00 0.00 0.00 52 1014.1
20260503193122 21 304 12.9 33.8 0.00 0.00 0.00 48 1014.2
20260503192122 21 311 9.7 25.7 0.00 0.00 0.00 48 1014.3
20260503191122 21 309 8.0 22.5 0.00 0.00 0.00 51 1014.4